M I D A S
Marine Information and Data Acquisition System
Tripno 2167 of the Zeeleeuw from 2011-08-19 07:27:30 to 2011-08-19 15:53:17
Back to CruiseResearch ActivitiesStationsMapUnderway DataData graphs

EquipmentUnitsComments
TimeDGPSUTC
LatitudeDGPSDM.mWGS84
LongitudeDGPSDM.mWGS84
SpeedMeteo Stationm/sRelative wind speed
DirectionMeteo StationdegRelative wind direction
TemperatureMeteo Stationdeg CelciusAir temperature
PressureMeteo StationPaAtmospheric pressure
HumidityMeteo Station%Relative humidity
Missing or incorrect values are displayed as -999
Metereological data collected by the RV Zeeleeuw from 2011-08-19 07:08:29 to 2011-08-19 15:54:02
                                                                                    Next 1000 lines
Time Latitude Longitude Speed Direction Temperature Pressure Humidity
2011-08-19 07:08:39 51°13.638 2°56.019 -999 35 16.4 101710 40
2011-08-19 07:08:44 51°13.638 2°56.019 -999 24 16.4 101710 41
2011-08-19 07:08:48 51°13.638 2°56.019 -999 36 16.4 101710 41
2011-08-19 07:08:54 51°13.637 2°56.019 -999 79 16.4 101710 41
2011-08-19 07:08:58 51°13.636 2°56.018 -999 35 16.4 101710 41
2011-08-19 07:09:03 51°13.635 2°56.018 -999 79 16.5 101710 41
2011-08-19 07:09:08 51°13.635 2°56.018 -999 36 16.5 101710 41
2011-08-19 07:09:12 51°13.635 2°56.018 -999 24 16.5 101710 41
2011-08-19 07:09:17 51°13.636 2°56.018 -999 36 16.5 101710 41
2011-08-19 07:09:23 51°13.636 2°56.019 0.1 80 16.5 101710 41
2011-08-19 07:09:27 51°13.636 2°56.019 0.1 37 16.5 101710 41
2011-08-19 07:09:32 51°13.636 2°56.019 0.1 25 16.5 101720 41
2011-08-19 07:09:37 51°13.636 2°56.019 -999 36 16.5 101720 41
2011-08-19 07:09:42 51°13.637 2°56.019 -999 79 16.5 101720 41
2011-08-19 07:09:46 51°13.637 2°56.019 -999 36 16.5 101720 41
2011-08-19 07:09:52 51°13.637 2°56.019 -999 25 16.4 101720 40
2011-08-19 07:09:56 51°13.637 2°56.019 -999 36 16.4 101720 40
2011-08-19 07:10:01 51°13.637 2°56.019 -999 78 16.4 101710 40
2011-08-19 07:10:07 51°13.637 2°56.019 -999 36 16.4 101710 40
2011-08-19 07:10:11 51°13.636 2°56.019 -999 79 16.4 101720 40
2011-08-19 07:10:16 51°13.635 2°56.019 -999 36 16.4 101720 40
2011-08-19 07:10:22 51°13.635 2°56.018 -999 25 16.5 101710 41
2011-08-19 07:10:27 51°13.635 2°56.018 -999 36 16.5 101710 41
2011-08-19 07:10:31 51°13.634 2°56.018 -999 25 16.5 101710 41
2011-08-19 07:10:36 51°13.634 2°56.018 -999 36 16.5 101710 41
2011-08-19 07:10:42 51°13.635 2°56.017 -999 79 16.5 101710 41
2011-08-19 07:10:47 51°13.635 2°56.016 -999 36 16.5 101710 41
2011-08-19 07:10:52 51°13.635 2°56.015 4.7 79 16.5 101720 39
2011-08-19 07:10:56 51°13.635 2°56.013 4.2 32 16.5 101720 39
2011-08-19 07:11:02 51°13.636 2°56.009 4 79 16.5 101720 40
2011-08-19 07:11:06 51°13.637 2°56.006 4.7 39 16.5 101720 40
2011-08-19 07:11:12 51°13.638 2°56.001 4.7 21 16.4 101720 40
2011-08-19 07:11:19 51°13.641 2°55.993 4.6 32 16.4 101720 40
2011-08-19 07:11:24 51°13.643 2°55.987 4.7 76 16.4 101710 41
2011-08-19 07:11:29 51°13.645 2°55.981 4.5 37 16.4 101710 41
2011-08-19 07:11:34 51°13.647 2°55.974 4.9 22 16.4 101710 40
2011-08-19 07:11:41 51°13.65 2°55.964 4.5 31 16.4 101710 40
2011-08-19 07:11:46 51°13.652 2°55.956 5 80 16.4 101710 41
2011-08-19 07:11:50 51°13.654 2°55.95 5.1 38 16.4 101710 41
2011-08-19 07:11:55 51°13.657 2°55.942 5 25 16.3 101720 39
2011-08-19 07:12:00 51°13.659 2°55.933 6.2 36 16.3 101720 39
2011-08-19 07:12:05 51°13.662 2°55.924 4.6 82 16.2 101720 40
2011-08-19 07:12:10 51°13.665 2°55.915 5.9 34 16.2 101720 40
2011-08-19 07:12:15 51°13.668 2°55.906 5.9 80 16.2 101710 41
2011-08-19 07:12:20 51°13.671 2°55.896 5.7 37 16.2 101710 41
2011-08-19 07:12:25 51°13.673 2°55.887 5.2 26 16.2 101710 39
2011-08-19 07:12:30 51°13.676 2°55.878 5.2 38 16.2 101710 39
2011-08-19 07:12:35 51°13.679 2°55.868 5.9 22 16.1 101710 40
2011-08-19 07:12:40 51°13.681 2°55.859 6.6 32 16.1 101710 40
2011-08-19 07:12:46 51°13.684 2°55.847 6.5 19 16.1 101720 39
2011-08-19 07:12:51 51°13.687 2°55.838 6.3 32 16.1 101720 39
2011-08-19 07:12:55 51°13.689 2°55.83 4.9 79 16.1 101710 41
2011-08-19 07:13:00 51°13.691 2°55.82 5 38 16.1 101710 41
2011-08-19 07:13:06 51°13.694 2°55.809 5 28 16.1 101710 40
2011-08-19 07:13:10 51°13.695 2°55.801 7.3 37 16.1 101710 40
2011-08-19 07:13:15 51°13.697 2°55.792 6.5 81 16.1 101720 41
2011-08-19 07:13:21 51°13.698 2°55.782 6.4 37 16.1 101720 41
2011-08-19 07:13:26 51°13.699 2°55.775 6.4 28 16 101710 40
2011-08-19 07:13:30 51°13.7 2°55.769 6 40 16 101710 40
2011-08-19 07:13:35 51°13.701 2°55.761 5.7 27 16 101720 39
2011-08-19 07:13:40 51°13.702 2°55.755 6 37 16 101720 39
2011-08-19 07:13:44 51°13.703 2°55.749 5.9 80 16 101720 41
2011-08-19 07:13:50 51°13.704 2°55.742 5 37 16 101720 41
2011-08-19 07:13:55 51°13.704 2°55.736 5.4 27 16 101720 41
2011-08-19 07:14:01 51°13.705 2°55.73 5.5 35 16 101720 41
2011-08-19 07:14:04 51°13.706 2°55.728 4.4 82 16 101720 40
2011-08-19 07:14:10 51°13.706 2°55.723 4.8 270 16 101720 40
2011-08-19 07:14:14 51°13.706 2°55.721 3.5 277 16 101720 40
2011-08-19 07:14:19 51°13.706 2°55.72 2.8 264 16 101720 40
2011-08-19 07:14:25 51°13.706 2°55.719 3.6 281 15.9 101720 41
2011-08-19 07:14:29 51°13.707 2°55.72 4.5 259 15.9 101720 41
2011-08-19 07:14:34 51°13.707 2°55.721 4.1 253 15.9 101720 42
2011-08-19 07:14:39 51°13.707 2°55.722 3.2 269 15.9 101720 42
2011-08-19 07:14:44 51°13.708 2°55.724 3 263 15.9 101710 40
2011-08-19 07:14:48 51°13.708 2°55.726 3.6 252 15.9 101710 40
2011-08-19 07:14:53 51°13.709 2°55.728 2.7 284 15.9 101710 40
2011-08-19 07:14:58 51°13.71 2°55.729 2.5 253 15.9 101710 40
2011-08-19 07:15:04 51°13.711 2°55.731 2.5 284 15.9 101710 42
2011-08-19 07:15:09 51°13.711 2°55.732 3.1 251 15.9 101710 42
2011-08-19 07:15:15 51°13.712 2°55.734 3.4 277 15.9 101710 42
2011-08-19 07:15:20 51°13.712 2°55.737 2.1 248 15.9 101710 42
2011-08-19 07:15:24 51°13.713 2°55.739 2.9 278 15.9 101710 40
2011-08-19 07:15:29 51°13.716 2°55.742 3.7 237 15.9 101710 40
2011-08-19 07:15:34 51°13.719 2°55.746 4.5 21 15.9 101710 42
2011-08-19 07:15:40 51°13.723 2°55.749 5.4 239 15.9 101710 42
2011-08-19 07:15:44 51°13.726 2°55.751 0.3 281 15.9 101710 40
2011-08-19 07:15:49 51°13.729 2°55.753 0.1 236 15.9 101710 40
2011-08-19 07:15:55 51°13.732 2°55.755 0.1 25 15.9 101710 41
2011-08-19 07:16:00 51°13.734 2°55.757 3.3 239 15.9 101710 41
2011-08-19 07:16:05 51°13.735 2°55.757 0.3 282 15.9 101710 40
2011-08-19 07:16:10 51°13.736 2°55.758 0.1 236 15.9 101710 40
2011-08-19 07:16:15 51°13.735 2°55.758 0.1 282 15.9 101710 39
2011-08-19 07:16:20 51°13.735 2°55.758 0.2 237 15.9 101710 39
2011-08-19 07:16:25 51°13.733 2°55.758 0.1 277 15.9 101710 41
2011-08-19 07:16:31 51°13.731 2°55.757 0.5 244 15.9 101710 41
2011-08-19 07:16:35 51°13.729 2°55.757 0.2 23 15.9 101710 41
2011-08-19 07:16:41 51°13.726 2°55.756 0.1 245 15.9 101710 41
2011-08-19 07:16:45 51°13.724 2°55.756 -999 282 16 101710 41
2011-08-19 07:16:50 51°13.72 2°55.755 -999 257 16 101710 41
2011-08-19 07:16:55 51°13.717 2°55.754 -999 281 16 101710 41
2011-08-19 07:17:00 51°13.714 2°55.753 -999 238 16 101710 41
2011-08-19 07:17:05 51°13.711 2°55.752 -999 24 16 101710 41
2011-08-19 07:17:11 51°13.709 2°55.751 -999 39 16 101710 41
2011-08-19 07:17:15 51°13.709 2°55.751 -999 281 16 101720 41
2011-08-19 07:17:20 51°13.709 2°55.75 -999 36 16 101720 41
2011-08-19 07:17:25 51°13.711 2°55.749 -999 25 16 101720 41
2011-08-19 07:17:30 51°13.714 2°55.748 4.2 329 16 101720 41
2011-08-19 07:17:35 51°13.717 2°55.746 5.9 331 16 101710 41
2011-08-19 07:17:40 51°13.721 2°55.743 6.2 329 16 101710 41
2011-08-19 07:17:45 51°13.726 2°55.739 5.8 284 16 101710 40
2011-08-19 07:17:51 51°13.733 2°55.732 6.1 334 16 101710 40
2011-08-19 07:17:55 51°13.738 2°55.728 7 333 16 101710 41
2011-08-19 07:18:00 51°13.746 2°55.721 7 331 16 101710 41
2011-08-19 07:18:04 51°13.752 2°55.715 6.7 285 16 101710 40
2011-08-19 07:18:09 51°13.76 2°55.708 7 330 16 101710 40
2011-08-19 07:18:14 51°13.768 2°55.701 7.8 283 16 101700 40
2011-08-19 07:18:20 51°13.778 2°55.691 6.1 333 16 101700 40
2011-08-19 07:18:25 51°13.787 2°55.683 7.1 280 16 101700 41
2011-08-19 07:18:30 51°13.796 2°55.675 9.3 332 16 101700 41
2011-08-19 07:18:34 51°13.803 2°55.668 8.2 328 16 101710 41
2011-08-19 07:18:39 51°13.812 2°55.66 7.6 328 16 101710 41
2011-08-19 07:18:44 51°13.823 2°55.652 6 282 16 101700 40
2011-08-19 07:18:49 51°13.833 2°55.644 7.3 330 16 101700 40
2011-08-19 07:18:54 51°13.843 2°55.636 6 329 16 101710 40
2011-08-19 07:19:00 51°13.856 2°55.626 7.2 324 16 101710 40
2011-08-19 07:19:04 51°13.865 2°55.62 7.3 280 16 101710 41
2011-08-19 07:19:08 51°13.874 2°55.613 8.2 323 16 101710 41
2011-08-19 07:19:13 51°13.885 2°55.604 7.5 279 16 101710 41
2011-08-19 07:19:18 51°13.896 2°55.596 6.3 322 16 101710 41
2011-08-19 07:19:23 51°13.908 2°55.587 5.2 326 16 101700 41
2011-08-19 07:19:28 51°13.92 2°55.578 7.4 328 16 101700 41
2011-08-19 07:19:34 51°13.934 2°55.568 7.4 329 15.9 101700 41
2011-08-19 07:19:38 51°13.943 2°55.561 6.4 327 15.9 101700 41
2011-08-19 07:19:43 51°13.954 2°55.552 7.6 278 16 101700 41
2011-08-19 07:19:48 51°13.966 2°55.543 8.2 327 16 101700 41
2011-08-19 07:19:52 51°13.975 2°55.536 9.5 285 16 101710 42
2011-08-19 07:19:57 51°13.986 2°55.528 10 329 16 101710 42
2011-08-19 07:20:04 51°14.002 2°55.516 8.9 330 16 101710 42
2011-08-19 07:20:08 51°14.011 2°55.509 9.5 326 16 101710 42
2011-08-19 07:20:13 51°14.023 2°55.5 7.8 284 16 101710 41
2011-08-19 07:20:18 51°14.034 2°55.492 8.6 328 16 101710 41
2011-08-19 07:20:24 51°14.048 2°55.481 9.4 284 16 101700 42
2011-08-19 07:20:28 51°14.057 2°55.475 7.7 328 16 101700 42
2011-08-19 07:20:33 51°14.069 2°55.466 8.1 328 16 101710 41
2011-08-19 07:20:39 51°14.083 2°55.455 11.2 328 16 101710 41
2011-08-19 07:20:44 51°14.095 2°55.446 8.8 280 16 101700 41
2011-08-19 07:20:50 51°14.109 2°55.435 9.6 322 16 101700 41
2011-08-19 07:20:54 51°14.118 2°55.428 9.4 280 16 101700 41
2011-08-19 07:20:59 51°14.13 2°55.418 9.4 324 16 101700 41
2011-08-19 07:21:04 51°14.142 2°55.408 10.4 283 16 101700 42
2011-08-19 07:21:09 51°14.154 2°55.398 7.7 322 16 101700 42
2011-08-19 07:21:15 51°14.168 2°55.386 8.8 279 16 101690 42
2011-08-19 07:21:20 51°14.18 2°55.375 7.6 324 16 101690 42
2011-08-19 07:21:24 51°14.189 2°55.367 7.5 278 16 101700 42
2011-08-19 07:21:29 51°14.201 2°55.356 9.9 324 16 101700 42
2011-08-19 07:21:35 51°14.215 2°55.344 8.8 323 16 101690 40
2011-08-19 07:21:40 51°14.227 2°55.333 8 324 16 101690 40
2011-08-19 07:21:44 51°14.237 2°55.325 7.6 325 16 101700 42
2011-08-19 07:21:51 51°14.253 2°55.309 8.3 327 16 101700 42
2011-08-19 07:21:56 51°14.265 2°55.298 10.8 279 16 101690 42
2011-08-19 07:22:00 51°14.275 2°55.289 8.9 327 16 101690 42
2011-08-19 07:22:04 51°14.284 2°55.28 10.4 282 16 101700 42
2011-08-19 07:22:10 51°14.298 2°55.266 8.4 328 16 101700 42
2011-08-19 07:22:16 51°14.313 2°55.252 8.3 280 16 101700 42
2011-08-19 07:22:21 51°14.325 2°55.241 8.5 326 16 101700 42
2011-08-19 07:22:25 51°14.335 2°55.231 10.1 279 15.9 101690 42
2011-08-19 07:22:30 51°14.346 2°55.218 9.1 329 15.9 101690 42
2011-08-19 07:22:35 51°14.358 2°55.206 8.9 327 15.9 101690 41
2011-08-19 07:22:41 51°14.371 2°55.191 10.9 327 15.9 101690 41
2011-08-19 07:22:45 51°14.38 2°55.181 9.2 283 15.9 101700 41
2011-08-19 07:22:50 51°14.392 2°55.169 8.3 326 15.9 101700 41
2011-08-19 07:22:55 51°14.404 2°55.157 8.8 326 15.9 101700 41
2011-08-19 07:23:00 51°14.417 2°55.145 9.3 323 15.9 101700 41
2011-08-19 07:23:05 51°14.429 2°55.132 9 284 15.9 101700 42
2011-08-19 07:23:09 51°14.439 2°55.122 9.5 326 15.9 101700 42
2011-08-19 07:23:14 51°14.451 2°55.11 10.6 327 15.9 101690 41
2011-08-19 07:23:19 51°14.463 2°55.097 11.1 329 15.9 101690 41
2011-08-19 07:23:24 51°14.475 2°55.084 9.8 286 15.9 101690 42
2011-08-19 07:23:29 51°14.488 2°55.072 8 327 15.9 101690 42
2011-08-19 07:23:34 51°14.5 2°55.059 12.8 327 15.9 101690 41
2011-08-19 07:23:39 51°14.512 2°55.046 10.4 326 15.9 101690 41
2011-08-19 07:23:43 51°14.522 2°55.035 10.5 284 15.9 101690 42
2011-08-19 07:23:49 51°14.537 2°55.02 9.8 324 15.9 101690 42
2011-08-19 07:23:53 51°14.547 2°55.009 12.1 281 15.9 101690 41
2011-08-19 07:23:58 51°14.559 2°54.995 11.9 323 15.9 101690 41
2011-08-19 07:24:03 51°14.571 2°54.979 9.2 323 15.9 101700 41
2011-08-19 07:24:08 51°14.583 2°54.962 9.3 322 15.9 101700 41
2011-08-19 07:24:13 51°14.596 2°54.948 9.9 282 15.9 101690 40
2011-08-19 07:24:17 51°14.607 2°54.938 10.6 321 15.9 101690 40
2011-08-19 07:24:22 51°14.621 2°54.927 9.9 282 15.9 101690 41
2011-08-19 07:24:27 51°14.636 2°54.917 10.6 318 15.9 101690 41
2011-08-19 07:24:32 51°14.652 2°54.908 8.7 317 15.9 101690 41
2011-08-19 07:24:37 51°14.667 2°54.9 9.9 317 15.9 101690 41
2011-08-19 07:24:41 51°14.68 2°54.895 9.2 280 15.9 101680 42
2011-08-19 07:24:47 51°14.7 2°54.888 9.9 316 15.9 101680 42
2011-08-19 07:24:52 51°14.716 2°54.884 9.6 283 15.9 101680 41
2011-08-19 07:24:57 51°14.732 2°54.881 8.9 37 15.9 101680 41
2011-08-19 07:25:02 51°14.749 2°54.88 8.4 282 15.9 101690 41
2011-08-19 07:25:07 51°14.765 2°54.879 8.1 38 15.9 101690 41
2011-08-19 07:25:12 51°14.782 2°54.881 8.4 280 15.9 101680 41
2011-08-19 07:25:17 51°14.798 2°54.882 7.8 39 15.9 101680 41
2011-08-19 07:25:22 51°14.814 2°54.886 7.2 284 15.9 101690 41
2011-08-19 07:25:27 51°14.83 2°54.89 9.6 33 15.9 101690 41
2011-08-19 07:25:32 51°14.846 2°54.895 7.6 25 15.9 101690 41
2011-08-19 07:25:37 51°14.861 2°54.901 7.4 38 15.9 101690 41
2011-08-19 07:25:42 51°14.877 2°54.906 9.9 280 15.8 101690 41
2011-08-19 07:25:47 51°14.893 2°54.91 9 32 15.8 101690 41
2011-08-19 07:25:52 51°14.909 2°54.916 7.8 281 15.8 101700 41
2011-08-19 07:25:57 51°14.925 2°54.922 7.9 35 15.8 101700 41
2011-08-19 07:26:02 51°14.94 2°54.929 7.8 285 15.8 101700 40
2011-08-19 07:26:07 51°14.956 2°54.937 8.9 38 15.8 101700 40
2011-08-19 07:26:12 51°14.971 2°54.945 8.6 281 15.8 101700 41
2011-08-19 07:26:17 51°14.985 2°54.956 7.4 36 15.8 101700 41
2011-08-19 07:26:22 51°15 2°54.968 6.9 27 15.8 101690 41
2011-08-19 07:26:27 51°15.014 2°54.98 7 33 15.8 101690 41
2011-08-19 07:26:32 51°15.028 2°54.992 6.6 27 15.8 101690 41
2011-08-19 07:26:37 51°15.042 2°55.004 6.4 32 15.8 101690 41
2011-08-19 07:26:42 51°15.056 2°55.017 5.8 285 15.8 101700 40
2011-08-19 07:26:47 51°15.069 2°55.031 6.8 32 15.8 101700 40
2011-08-19 07:26:52 51°15.083 2°55.043 6.4 287 15.8 101700 40
2011-08-19 07:26:57 51°15.098 2°55.055 7.9 33 15.8 101700 40
2011-08-19 07:27:02 51°15.112 2°55.067 7.5 282 15.8 101700 40
2011-08-19 07:27:07 51°15.127 2°55.078 7.4 40 15.8 101700 40
2011-08-19 07:27:12 51°15.142 2°55.088 8.7 281 15.8 101700 41
2011-08-19 07:27:17 51°15.156 2°55.098 8.7 33 15.8 101700 41
2011-08-19 07:27:21 51°15.169 2°55.105 9.8 281 15.8 101700 40
2011-08-19 07:27:27 51°15.186 2°55.117 8.7 40 15.8 101700 40
2011-08-19 07:27:32 51°15.202 2°55.126 7.4 26 15.8 101700 41
2011-08-19 07:27:37 51°15.217 2°55.136 7.7 37 15.8 101700 41
2011-08-19 07:27:42 51°15.231 2°55.146 7.7 280 15.8 101700 41
2011-08-19 07:27:47 51°15.246 2°55.155 7.1 34 15.8 101700 41
2011-08-19 07:27:52 51°15.261 2°55.166 6.9 280 15.8 101690 41
2011-08-19 07:27:57 51°15.275 2°55.178 6.7 34 15.8 101690 41
2011-08-19 07:28:02 51°15.289 2°55.189 9.9 284 15.8 101690 41
2011-08-19 07:28:07 51°15.304 2°55.2 7.9 32 15.8 101690 41
2011-08-19 07:28:12 51°15.318 2°55.212 8 281 15.8 101690 41
2011-08-19 07:28:17 51°15.332 2°55.226 8.2 37 15.8 101690 41
2011-08-19 07:28:21 51°15.342 2°55.237 7.3 23 15.8 101690 41
2011-08-19 07:28:27 51°15.358 2°55.256 6.7 34 15.8 101690 41
2011-08-19 07:28:32 51°15.37 2°55.272 7.7 28 15.9 101700 42
2011-08-19 07:28:37 51°15.381 2°55.29 8.2 31 15.9 101700 42
2011-08-19 07:28:42 51°15.393 2°55.308 6.4 281 15.8 101710 40
2011-08-19 07:28:47 51°15.403 2°55.327 7.8 36 15.8 101710 40
2011-08-19 07:28:52 51°15.413 2°55.347 7.4 284 15.8 101700 42
2011-08-19 07:28:57 51°15.423 2°55.367 6.7 32 15.8 101700 42
2011-08-19 07:29:01 51°15.43 2°55.384 4.4 279 15.8 101690 41
2011-08-19 07:29:07 51°15.441 2°55.409 6.9 236 15.8 101690 41
2011-08-19 07:29:12 51°15.451 2°55.429 8 278 15.8 101700 41
2011-08-19 07:29:17 51°15.461 2°55.448 7.5 33 15.8 101700 41
2011-08-19 07:29:21 51°15.469 2°55.464 6.9 285 15.8 101700 41
2011-08-19 07:29:27 51°15.482 2°55.487 5.9 33 15.8 101700 41
2011-08-19 07:29:32 51°15.492 2°55.506 5.7 20 15.8 101700 40
2011-08-19 07:29:37 51°15.503 2°55.525 6.1 34 15.8 101700 40
2011-08-19 07:29:42 51°15.513 2°55.544 5.6 278 15.8 101710 41
2011-08-19 07:29:47 51°15.524 2°55.563 5.8 38 15.8 101710 41
2011-08-19 07:29:52 51°15.534 2°55.583 5.2 285 15.8 101700 40
2011-08-19 07:29:57 51°15.545 2°55.602 6.3 39 15.8 101700 40
2011-08-19 07:30:02 51°15.555 2°55.622 6.3 281 15.8 101710 40
2011-08-19 07:30:07 51°15.565 2°55.642 6.5 38 15.8 101710 40
2011-08-19 07:30:12 51°15.574 2°55.662 6.4 278 15.8 101710 41
2011-08-19 07:30:17 51°15.583 2°55.683 7 33 15.8 101710 41
2011-08-19 07:30:22 51°15.593 2°55.704 5.8 279 15.8 101710 41
2011-08-19 07:30:27 51°15.601 2°55.725 6 32 15.8 101710 41
2011-08-19 07:30:32 51°15.611 2°55.745 5.5 28 15.8 101710 40
2011-08-19 07:30:37 51°15.62 2°55.767 7.2 240 15.8 101710 40
2011-08-19 07:30:42 51°15.63 2°55.787 7.3 279 15.8 101710 40
2011-08-19 07:30:47 51°15.639 2°55.808 5.4 236 15.8 101710 40
2011-08-19 07:30:52 51°15.648 2°55.828 7 284 15.8 101710 40
2011-08-19 07:30:57 51°15.657 2°55.849 7.4 239 15.8 101710 40
2011-08-19 07:31:02 51°15.668 2°55.869 6.8 20 15.8 101710 40
2011-08-19 07:31:07 51°15.677 2°55.889 6.7 241 15.8 101710 40
2011-08-19 07:31:12 51°15.687 2°55.909 6 285 15.8 101710 40
2011-08-19 07:31:17 51°15.696 2°55.929 7.2 240 15.8 101710 40
2011-08-19 07:31:22 51°15.706 2°55.949 7.8 282 15.8 101710 41
2011-08-19 07:31:27 51°15.715 2°55.97 7.3 238 15.8 101710 41
2011-08-19 07:31:32 51°15.724 2°55.99 6.4 21 15.8 101720 41
2011-08-19 07:31:37 51°15.734 2°56.01 6.9 236 15.8 101720 41
2011-08-19 07:31:42 51°15.743 2°56.03 6.3 281 15.8 101710 41
2011-08-19 07:31:47 51°15.753 2°56.05 6.7 236 15.8 101710 41
2011-08-19 07:31:52 51°15.762 2°56.069 8.1 284 15.8 101710 41
2011-08-19 07:31:57 51°15.773 2°56.088 5.9 33 15.8 101710 41
2011-08-19 07:32:02 51°15.783 2°56.108 6.9 282 15.9 101720 42
2011-08-19 07:32:07 51°15.794 2°56.126 6.4 234 15.9 101720 42
2011-08-19 07:32:12 51°15.805 2°56.145 6.2 280 15.9 101710 40
2011-08-19 07:32:17 51°15.815 2°56.164 6.3 234 15.9 101710 40
2011-08-19 07:32:22 51°15.825 2°56.183 7 281 15.9 101700 41
2011-08-19 07:32:27 51°15.835 2°56.203 6.1 233 15.9 101700 41
2011-08-19 07:32:32 51°15.845 2°56.223 6 26 15.9 101710 41
2011-08-19 07:32:37 51°15.856 2°56.241 7.9 234 15.9 101710 41
2011-08-19 07:32:42 51°15.866 2°56.26 7.1 280 15.9 101720 41
2011-08-19 07:32:47 51°15.877 2°56.279 6.9 32 15.9 101720 41
2011-08-19 07:32:52 51°15.888 2°56.297 6.6 286 15.9 101720 40
2011-08-19 07:32:57 51°15.899 2°56.315 7.4 236 15.9 101720 40
2011-08-19 07:33:02 51°15.91 2°56.334 6.1 19 15.9 101720 41
2011-08-19 07:33:07 51°15.92 2°56.352 6.8 31 15.9 101720 41
2011-08-19 07:33:12 51°15.931 2°56.371 6.2 281 15.9 101710 40
2011-08-19 07:33:17 51°15.942 2°56.389 6.4 32 15.9 101710 40
2011-08-19 07:33:22 51°15.951 2°56.409 5.7 286 15.9 101710 40
2011-08-19 07:33:27 51°15.961 2°56.428 6.2 35 15.9 101710 40
2011-08-19 07:33:32 51°15.97 2°56.448 6.5 28 15.9 101720 40
2011-08-19 07:33:37 51°15.979 2°56.469 5.8 237 15.9 101720 40
2011-08-19 07:33:42 51°15.988 2°56.49 5 277 15.9 101720 41
2011-08-19 07:33:47 51°15.996 2°56.511 5.9 33 15.9 101720 41
2011-08-19 07:33:52 51°16.004 2°56.533 5.4 285 15.9 101720 41
2011-08-19 07:33:57 51°16.012 2°56.555 5.4 239 15.9 101720 41
2011-08-19 07:34:02 51°16.019 2°56.577 5.5 278 15.8 101720 40
2011-08-19 07:34:07 51°16.027 2°56.598 5.5 37 15.8 101720 40
2011-08-19 07:34:12 51°16.036 2°56.619 6 283 15.9 101720 41
2011-08-19 07:34:17 51°16.045 2°56.64 5.6 36 15.9 101720 41
2011-08-19 07:34:22 51°16.053 2°56.66 5.5 285 15.9 101720 40
2011-08-19 07:34:27 51°16.062 2°56.681 5.5 33 15.9 101720 40
2011-08-19 07:34:32 51°16.072 2°56.701 5.1 26 15.9 101720 40
2011-08-19 07:34:37 51°16.08 2°56.721 5 235 15.9 101720 40
2011-08-19 07:34:42 51°16.088 2°56.743 4.6 286 15.8 101720 41
2011-08-19 07:34:47 51°16.097 2°56.764 5.1 237 15.8 101720 41
2011-08-19 07:34:52 51°16.104 2°56.785 6.7 279 15.8 101720 40
2011-08-19 07:34:57 51°16.112 2°56.807 6.9 32 15.8 101720 40
2011-08-19 07:35:01 51°16.118 2°56.824 6.3 28 15.8 101720 40
2011-08-19 07:35:07 51°16.127 2°56.85 6.9 234 15.8 101720 40
2011-08-19 07:35:12 51°16.135 2°56.872 7.3 284 15.8 101720 40
2011-08-19 07:35:17 51°16.142 2°56.894 5.5 238 15.8 101720 40
2011-08-19 07:35:22 51°16.15 2°56.915 7.2 279 15.8 101710 41
2011-08-19 07:35:27 51°16.157 2°56.937 7 235 15.8 101710 41
2011-08-19 07:35:32 51°16.165 2°56.959 5.4 20 15.9 101720 41
2011-08-19 07:35:37 51°16.173 2°56.981 3.3 36 15.9 101720 41
2011-08-19 07:35:42 51°16.18 2°57.002 6.9 27 15.9 101720 42
2011-08-19 07:35:47 51°16.188 2°57.023 5.4 35 15.9 101720 42
2011-08-19 07:35:52 51°16.196 2°57.044 5.8 278 15.9 101720 41
2011-08-19 07:35:57 51°16.205 2°57.065 6.1 31 15.9 101720 41
2011-08-19 07:36:02 51°16.214 2°57.086 6.7 280 15.9 101720 41
2011-08-19 07:36:07 51°16.223 2°57.105 6.1 236 15.9 101720 41
2011-08-19 07:36:12 51°16.232 2°57.126 5.8 21 15.9 101720 41
2011-08-19 07:36:17 51°16.24 2°57.147 6.1 32 15.9 101720 41
2011-08-19 07:36:22 51°16.249 2°57.168 5.5 279 15.8 101720 41
2011-08-19 07:36:27 51°16.257 2°57.189 5.7 241 15.8 101720 41
2011-08-19 07:36:32 51°16.265 2°57.21 5.6 22 15.8 101720 41
2011-08-19 07:36:37 51°16.272 2°57.232 5.2 238 15.8 101720 41
2011-08-19 07:36:42 51°16.28 2°57.253 4.8 284 15.8 101720 41
2011-08-19 07:36:47 51°16.287 2°57.275 6.7 235 15.8 101720 41
2011-08-19 07:36:52 51°16.294 2°57.296 5.3 279 15.8 101730 41
2011-08-19 07:36:57 51°16.302 2°57.318 5.6 235 15.8 101730 41
2011-08-19 07:37:02 51°16.31 2°57.339 5.2 284 15.8 101720 41
2011-08-19 07:37:07 51°16.317 2°57.36 6.2 236 15.8 101720 41
2011-08-19 07:37:12 51°16.324 2°57.382 7.5 281 15.8 101730 42
2011-08-19 07:37:17 51°16.331 2°57.403 6.5 33 15.8 101730 42
2011-08-19 07:37:21 51°16.337 2°57.42 6.4 278 15.9 101730 41
2011-08-19 07:37:27 51°16.347 2°57.446 6.6 239 15.9 101730 41
2011-08-19 07:37:32 51°16.356 2°57.466 6.9 21 15.9 101720 40
2011-08-19 07:37:37 51°16.364 2°57.486 6.2 241 15.9 101720 40
2011-08-19 07:37:42 51°16.373 2°57.507 6.5 25 15.8 101720 41
2011-08-19 07:37:47 51°16.382 2°57.527 6 239 15.8 101720 41
2011-08-19 07:37:52 51°16.391 2°57.547 5.5 278 15.9 101730 41
2011-08-19 07:37:57 51°16.399 2°57.567 5.8 239 15.9 101730 41
2011-08-19 07:38:02 51°16.408 2°57.588 5.9 280 15.9 101730 41
2011-08-19 07:38:07 51°16.416 2°57.609 5.7 235 15.9 101730 41
2011-08-19 07:38:12 51°16.424 2°57.63 4.8 285 15.9 101730 41
2011-08-19 07:38:17 51°16.431 2°57.652 5.4 38 15.9 101730 41
2011-08-19 07:38:22 51°16.439 2°57.673 6.7 278 15.9 101730 41
2011-08-19 07:38:27 51°16.446 2°57.695 5.2 237 15.9 101730 41
2011-08-19 07:38:32 51°16.454 2°57.716 5.1 22 15.9 101730 42
2011-08-19 07:38:37 51°16.462 2°57.737 5.2 34 15.9 101730 42
2011-08-19 07:38:41 51°16.468 2°57.754 6 278 15.8 101740 42
2011-08-19 07:38:47 51°16.477 2°57.78 5.2 240 15.8 101740 42
2011-08-19 07:38:52 51°16.485 2°57.801 5.3 23 15.8 101730 41
2011-08-19 07:38:57 51°16.492 2°57.823 4.5 32 15.8 101730 41
2011-08-19 07:39:02 51°16.5 2°57.844 5.6 277 15.8 101740 40
2011-08-19 07:39:07 51°16.508 2°57.866 5.6 234 15.8 101740 40
2011-08-19 07:39:12 51°16.516 2°57.887 6 285 15.8 101730 41
2011-08-19 07:39:17 51°16.524 2°57.908 7.9 241 15.8 101730 41
2011-08-19 07:39:22 51°16.532 2°57.929 6.1 280 15.8 101730 41
2011-08-19 07:39:27 51°16.54 2°57.95 6.2 240 15.8 101730 41
2011-08-19 07:39:32 51°16.549 2°57.97 5.1 23 15.8 101730 41
2011-08-19 07:39:37 51°16.558 2°57.99 6.8 32 15.8 101730 41
2011-08-19 07:39:41 51°16.566 2°58.005 6.4 26 15.8 101730 41
2011-08-19 07:39:47 51°16.577 2°58.029 6.5 235 15.8 101730 41
2011-08-19 07:39:52 51°16.586 2°58.049 5.9 278 15.8 101730 40
2011-08-19 07:39:57 51°16.595 2°58.069 6.1 238 15.8 101730 40
2011-08-19 07:40:01 51°16.602 2°58.084 5.9 280 15.8 101730 41
2011-08-19 07:40:07 51°16.613 2°58.108 4.6 235 15.8 101730 41
2011-08-19 07:40:12 51°16.623 2°58.128 5.8 279 15.8 101730 39
2011-08-19 07:40:17 51°16.632 2°58.148 5.4 238 15.8 101730 39
2011-08-19 07:40:22 51°16.641 2°58.167 5.4 20 15.8 101730 40
2011-08-19 07:40:27 51°16.65 2°58.188 5 34 15.8 101730 40
2011-08-19 07:40:32 51°16.659 2°58.208 5.2 21 15.8 101730 41
2011-08-19 07:40:37 51°16.667 2°58.229 5.3 31 15.8 101730 41
2011-08-19 07:40:41 51°16.674 2°58.245 5.6 279 15.7 101720 40
2011-08-19 07:40:47 51°16.683 2°58.271 3.7 242 15.7 101720 40
2011-08-19 07:40:52 51°16.691 2°58.293 4.8 278 15.7 101730 41
2011-08-19 07:40:57 51°16.698 2°58.315 4.5 239 15.7 101730 41
2011-08-19 07:41:02 51°16.705 2°58.336 4.8 277 15.8 101730 40
2011-08-19 07:41:07 51°16.713 2°58.358 5.7 240 15.8 101730 40
2011-08-19 07:41:12 51°16.721 2°58.38 5.4 284 15.8 101730 41
2011-08-19 07:41:17 51°16.728 2°58.401 5.8 35 15.8 101730 41
2011-08-19 07:41:22 51°16.736 2°58.423 6.2 281 15.8 101740 41
2011-08-19 07:41:27 51°16.744 2°58.444 5.5 33 15.8 101740 41
2011-08-19 07:41:32 51°16.753 2°58.464 7.1 23 15.8 101740 40
2011-08-19 07:41:37 51°16.762 2°58.485 6.8 32 15.8 101740 40
2011-08-19 07:41:42 51°16.771 2°58.505 6.9 22 15.8 101730 41
2011-08-19 07:41:47 51°16.781 2°58.524 6.8 237 15.8 101730 41
2011-08-19 07:41:52 51°16.79 2°58.543 7.7 285 15.8 101730 41
2011-08-19 07:41:57 51°16.8 2°58.562 5.9 236 15.8 101730 41
2011-08-19 07:42:01 51°16.808 2°58.578 5.8 283 15.8 101720 41
2011-08-19 07:42:07 51°16.819 2°58.601 5.2 238 15.8 101720 41
2011-08-19 07:42:12 51°16.829 2°58.621 5.8 277 15.8 101720 41
2011-08-19 07:42:17 51°16.838 2°58.641 4.9 33 15.8 101720 41
2011-08-19 07:42:22 51°16.847 2°58.661 5.7 25 15.8 101730 41
2011-08-19 07:42:27 51°16.857 2°58.68 7.7 35 15.8 101730 41
2011-08-19 07:42:32 51°16.866 2°58.701 5 22 15.8 101730 41
2011-08-19 07:42:37 51°16.875 2°58.722 7.2 241 15.8 101730 41
2011-08-19 07:42:42 51°16.882 2°58.743 5.3 285 15.8 101730 41
2011-08-19 07:42:47 51°16.891 2°58.764 4.8 240 15.8 101730 41
2011-08-19 07:42:52 51°16.899 2°58.785 5.6 27 15.9 101730 40
2011-08-19 07:42:57 51°16.908 2°58.806 5.3 237 15.9 101730 40
2011-08-19 07:43:02 51°16.916 2°58.827 7 285 15.9 101720 42
2011-08-19 07:43:07 51°16.924 2°58.848 6.7 240 15.9 101720 42
2011-08-19 07:43:12 51°16.933 2°58.868 6.7 278 15.9 101730 41
2011-08-19 07:43:17 51°16.942 2°58.889 7.3 31 15.9 101730 41
2011-08-19 07:43:22 51°16.952 2°58.908 8.1 280 15.9 101730 42
2011-08-19 07:43:27 51°16.961 2°58.928 6.3 238 15.9 101730 42
2011-08-19 07:43:32 51°16.97 2°58.948 7.3 29 15.9 101720 41
2011-08-19 07:43:37 51°16.979 2°58.969 6.4 242 15.9 101720 41
2011-08-19 07:43:42 51°16.988 2°58.989 7 277 15.9 101720 41
2011-08-19 07:43:47 51°16.996 2°59.01 5.6 240 15.9 101720 41
2011-08-19 07:43:52 51°17.005 2°59.031 4.8 285 15.8 101730 41
2011-08-19 07:43:57 51°17.013 2°59.052 5.2 242 15.8 101730 41
2011-08-19 07:44:02 51°17.022 2°59.073 6.1 281 15.8 101730 40
2011-08-19 07:44:07 51°17.03 2°59.093 6.6 239 15.8 101730 40
2011-08-19 07:44:12 51°17.039 2°59.114 6.3 283 15.8 101730 40
2011-08-19 07:44:17 51°17.048 2°59.134 4.8 238 15.8 101730 40
2011-08-19 07:44:22 51°17.058 2°59.154 6.5 29 15.9 101720 42
2011-08-19 07:44:27 51°17.067 2°59.175 5.6 240 15.9 101720 42
2011-08-19 07:44:32 51°17.076 2°59.194 4.6 20 15.8 101730 41
2011-08-19 07:44:37 51°17.086 2°59.214 5 244 15.8 101730 41
2011-08-19 07:44:42 51°17.095 2°59.234 5.1 281 15.8 101730 41
2011-08-19 07:44:47 51°17.104 2°59.254 4.5 244 15.8 101730 41
2011-08-19 07:44:52 51°17.113 2°59.275 4.7 278 15.8 101720 40
2011-08-19 07:44:57 51°17.121 2°59.296 4.2 247 15.8 101720 40
2011-08-19 07:45:02 51°17.129 2°59.318 4.3 278 15.8 101740 40
2011-08-19 07:45:07 51°17.137 2°59.339 2.4 240 15.8 101740 40
2011-08-19 07:45:12 51°17.145 2°59.361 4.4 281 15.8 101740 40
2011-08-19 07:45:17 51°17.153 2°59.382 5.3 232 15.8 101740 40
2011-08-19 07:45:22 51°17.161 2°59.404 6.2 278 15.8 101730 40
2011-08-19 07:45:27 51°17.169 2°59.426 6.6 34 15.8 101730 40
2011-08-19 07:45:32 51°17.177 2°59.447 7.1 25 15.8 101730 39
2011-08-19 07:45:37 51°17.185 2°59.468 5.8 238 15.8 101730 39
2011-08-19 07:45:42 51°17.193 2°59.489 5.7 279 15.8 101740 42
2011-08-19 07:45:47 51°17.201 2°59.51 5.5 239 15.8 101740 42
2011-08-19 07:45:52 51°17.21 2°59.531 6.7 280 15.9 101730 42
2011-08-19 07:45:57 51°17.219 2°59.552 5.7 237 15.9 101730 42
2011-08-19 07:46:02 51°17.228 2°59.572 5.3 284 15.9 101740 41
2011-08-19 07:46:07 51°17.237 2°59.592 7.5 237 15.9 101740 41
2011-08-19 07:46:12 51°17.246 2°59.612 5.8 284 15.8 101740 40
2011-08-19 07:46:17 51°17.256 2°59.631 6 237 15.8 101740 40
2011-08-19 07:46:21 51°17.263 2°59.647 6.1 26 15.8 101730 41
2011-08-19 07:46:27 51°17.274 2°59.671 7.6 31 15.8 101730 41
2011-08-19 07:46:32 51°17.284 2°59.691 6.3 25 15.8 101730 41
2011-08-19 07:46:37 51°17.294 2°59.71 4.7 32 15.8 101730 41
2011-08-19 07:46:41 51°17.301 2°59.726 6.9 285 15.8 101730 41
2011-08-19 07:46:47 51°17.312 2°59.75 7.3 238 15.8 101730 41
2011-08-19 07:46:52 51°17.321 2°59.77 6.2 284 15.8 101720 41
2011-08-19 07:46:57 51°17.33 2°59.79 5.4 236 15.8 101720 41
2011-08-19 07:47:02 51°17.339 2°59.81 5.5 286 15.8 101730 40
2011-08-19 07:47:07 51°17.348 2°59.831 6.4 237 15.8 101730 40
2011-08-19 07:47:12 51°17.357 2°59.851 7 27 15.8 101730 40
2011-08-19 07:47:17 51°17.366 2°59.872 5.1 31 15.8 101730 40
2011-08-19 07:47:21 51°17.373 2°59.887 4.9 25 15.8 101730 41
2011-08-19 07:47:27 51°17.384 2°59.912 4.7 238 15.8 101730 41
2011-08-19 07:47:32 51°17.393 2°59.932 5.1 24 15.8 101730 41
2011-08-19 07:47:37 51°17.402 2°59.953 4.6 237 15.8 101730 41
2011-08-19 07:47:42 51°17.411 2°59.973 4.9 23 15.8 101730 40
2011-08-19 07:47:47 51°17.42 2°59.993 5.8 239 15.8 101730 40
2011-08-19 07:47:52 51°17.429 3°0.014 5.7 23 15.8 101740 41
2011-08-19 07:47:57 51°17.437 3°0.035 4.2 237 15.8 101740 41
2011-08-19 07:48:02 51°17.445 3°0.056 4 284 15.8 101730 41
2011-08-19 07:48:07 51°17.453 3°0.078 4 33 15.8 101730 41
2011-08-19 07:48:12 51°17.46 3°0.099 5 20 15.8 101730 40
2011-08-19 07:48:17 51°17.467 3°0.122 4.4 241 15.8 101730 40
2011-08-19 07:48:22 51°17.474 3°0.143 4 23 15.8 101740 41
2011-08-19 07:48:27 51°17.482 3°0.165 3.1 240 15.8 101740 41
2011-08-19 07:48:32 51°17.489 3°0.187 3.1 23 15.8 101740 40
2011-08-19 07:48:37 51°17.496 3°0.209 3.8 35 15.8 101740 40
2011-08-19 07:48:42 51°17.504 3°0.231 4.2 23 15.8 101730 41
2011-08-19 07:48:47 51°17.511 3°0.253 4.3 238 15.8 101730 41
2011-08-19 07:48:52 51°17.519 3°0.275 5.2 20 15.8 101740 41
2011-08-19 07:48:57 51°17.526 3°0.296 4.6 31 15.8 101740 41
2011-08-19 07:49:02 51°17.534 3°0.318 3.4 21 15.8 101730 40
2011-08-19 07:49:07 51°17.541 3°0.34 5.4 240 15.8 101730 40
2011-08-19 07:49:12 51°17.549 3°0.362 4.2 23 15.8 101740 42
2011-08-19 07:49:17 51°17.556 3°0.383 5.1 240 15.8 101740 42
2011-08-19 07:49:22 51°17.564 3°0.405 5.2 23 15.8 101730 41
2011-08-19 07:49:27 51°17.571 3°0.426 4.5 241 15.8 101730 41
2011-08-19 07:49:32 51°17.58 3°0.447 5.5 23 15.8 101730 41
2011-08-19 07:49:37 51°17.587 3°0.469 5.1 239 15.8 101730 41
2011-08-19 07:49:42 51°17.595 3°0.49 5.7 21 15.8 101740 41
2011-08-19 07:49:47 51°17.602 3°0.512 6.6 239 15.8 101740 41
2011-08-19 07:49:52 51°17.61 3°0.533 5.9 22 15.8 101730 41
2011-08-19 07:49:57 51°17.618 3°0.555 6.1 241 15.8 101730 41
2011-08-19 07:50:02 51°17.626 3°0.576 6.2 24 15.8 101740 41
2011-08-19 07:50:07 51°17.634 3°0.597 4.8 238 15.8 101740 41
2011-08-19 07:50:12 51°17.642 3°0.618 5.9 26 15.8 101730 42
2011-08-19 07:50:17 51°17.65 3°0.639 6.6 240 15.8 101730 42
2011-08-19 07:50:22 51°17.659 3°0.66 6.2 26 15.8 101730 41
2011-08-19 07:50:27 51°17.667 3°0.68 5.7 241 15.8 101730 41
2011-08-19 07:50:32 51°17.677 3°0.7 6.4 21 15.8 101730 40
2011-08-19 07:50:37 51°17.686 3°0.72 7.1 34 15.8 101730 40
2011-08-19 07:50:42 51°17.696 3°0.739 6.3 22 15.8 101720 41
2011-08-19 07:50:47 51°17.705 3°0.759 6.4 238 15.8 101720 41
2011-08-19 07:50:52 51°17.715 3°0.778 6.9 23 15.7 101730 39
2011-08-19 07:50:57 51°17.725 3°0.797 6.5 237 15.7 101730 39
2011-08-19 07:51:01 51°17.732 3°0.813 6.8 28 15.8 101730 40
2011-08-19 07:51:07 51°17.745 3°0.835 5.7 237 15.8 101730 40
2011-08-19 07:51:12 51°17.754 3°0.854 5.9 24 15.8 101730 41
2011-08-19 07:51:17 51°17.764 3°0.873 5.7 32 15.8 101730 41
2011-08-19 07:51:22 51°17.774 3°0.893 5 25 15.7 101730 41
2011-08-19 07:51:27 51°17.784 3°0.912 5.8 239 15.7 101730 41
2011-08-19 07:51:32 51°17.794 3°0.931 6.8 30 15.7 101730 40
2011-08-19 07:51:37 51°17.803 3°0.95 6.2 239 15.7 101730 40
2011-08-19 07:51:42 51°17.812 3°0.97 6.7 29 15.7 101730 40
2011-08-19 07:51:47 51°17.822 3°0.99 6.7 240 15.7 101730 40
2011-08-19 07:51:52 51°17.831 3°1.009 5.5 28 15.7 101740 40
2011-08-19 07:51:57 51°17.84 3°1.029 5.3 236 15.7 101740 40
2011-08-19 07:52:02 51°17.849 3°1.05 5.5 26 15.7 101730 40
2011-08-19 07:52:07 51°17.857 3°1.071 5.1 240 15.7 101730 40
2011-08-19 07:52:12 51°17.865 3°1.092 4.8 25 15.7 101730 41
2011-08-19 07:52:17 51°17.873 3°1.114 5.7 243 15.7 101730 41
2011-08-19 07:52:22 51°17.881 3°1.135 4.9 28 15.8 101730 40
2011-08-19 07:52:27 51°17.888 3°1.157 4.4 242 15.8 101730 40
2011-08-19 07:52:32 51°17.895 3°1.179 3.9 26 15.8 101730 40
2011-08-19 07:52:37 51°17.901 3°1.2 6.7 240 15.8 101730 40
2011-08-19 07:52:42 51°17.91 3°1.222 4.9 28 15.8 101740 40
2011-08-19 07:52:47 51°17.917 3°1.243 7.2 240 15.8 101740 40
2011-08-19 07:52:52 51°17.926 3°1.264 5.4 29 15.8 101740 41
2011-08-19 07:52:57 51°17.934 3°1.285 5.8 31 15.8 101740 41
2011-08-19 07:53:01 51°17.941 3°1.301 5.4 24 15.8 101740 41
2011-08-19 07:53:07 51°17.952 3°1.325 5.5 237 15.8 101740 41
2011-08-19 07:53:12 51°17.961 3°1.345 5.6 25 15.9 101740 42
2011-08-19 07:53:17 51°17.969 3°1.365 5.2 237 15.9 101740 42
2011-08-19 07:53:22 51°17.979 3°1.385 5.3 28 15.8 101740 41
2011-08-19 07:53:27 51°17.988 3°1.404 5.1 32 15.8 101740 41
2011-08-19 07:53:32 51°17.998 3°1.423 5.5 21 15.8 101730 39
2011-08-19 07:53:37 51°18.008 3°1.442 7 30 15.8 101730 39
2011-08-19 07:53:42 51°18.017 3°1.462 5.6 27 15.8 101740 41
2011-08-19 07:53:47 51°18.026 3°1.482 5 238 15.8 101740 41
2011-08-19 07:53:52 51°18.035 3°1.502 4.7 21 15.8 101740 41
2011-08-19 07:53:57 51°18.044 3°1.523 2.6 236 15.8 101740 41
2011-08-19 07:54:02 51°18.052 3°1.544 5 19 15.8 101730 41
2011-08-19 07:54:07 51°18.06 3°1.565 3.9 35 15.8 101730 41
2011-08-19 07:54:12 51°18.067 3°1.586 4.8 21 15.8 101740 40
2011-08-19 07:54:17 51°18.075 3°1.608 5.4 240 15.8 101740 40
2011-08-19 07:54:22 51°18.082 3°1.629 5.2 25 15.8 101740 41
2011-08-19 07:54:27 51°18.09 3°1.65 5.5 236 15.8 101740 41
2011-08-19 07:54:32 51°18.098 3°1.672 5.6 24 15.8 101740 40
2011-08-19 07:54:37 51°18.105 3°1.693 7.1 238 15.8 101740 40
2011-08-19 07:54:42 51°18.113 3°1.714 5.8 23 15.8 101740 40
2011-08-19 07:54:47 51°18.121 3°1.736 5.9 235 15.8 101740 40
2011-08-19 07:54:52 51°18.129 3°1.757 6.2 21 15.8 101740 40
2011-08-19 07:54:57 51°18.138 3°1.777 5.9 236 15.8 101740 40
2011-08-19 07:55:02 51°18.147 3°1.797 6.2 284 15.9 101740 41
2011-08-19 07:55:07 51°18.157 3°1.817 5.9 32 15.9 101740 41
2011-08-19 07:55:12 51°18.166 3°1.836 7.9 20 15.9 101740 41
2011-08-19 07:55:17 51°18.175 3°1.856 6.6 237 15.9 101740 41
2011-08-19 07:55:22 51°18.186 3°1.875 6.2 28 15.9 101740 41
2011-08-19 07:55:27 51°18.194 3°1.895 6.1 236 15.9 101740 41
2011-08-19 07:55:32 51°18.204 3°1.914 5.3 20 15.9 101740 41
2011-08-19 07:55:37 51°18.213 3°1.934 5.7 233 15.9 101740 41
2011-08-19 07:55:42 51°18.223 3°1.953 6.1 28 15.9 101740 41
2011-08-19 07:55:47 51°18.232 3°1.973 5.1 239 15.9 101740 41
2011-08-19 07:55:52 51°18.242 3°1.993 5.4 28 15.9 101740 40
2011-08-19 07:55:57 51°18.251 3°2.012 6 234 15.9 101740 40
2011-08-19 07:56:02 51°18.261 3°2.032 6 22 15.9 101740 41
2011-08-19 07:56:07 51°18.27 3°2.051 6.1 34 15.9 101740 41
2011-08-19 07:56:12 51°18.279 3°2.071 5.6 28 15.8 101740 39
2011-08-19 07:56:17 51°18.288 3°2.091 6.6 240 15.8 101740 39
2011-08-19 07:56:22 51°18.297 3°2.111 6.7 21 15.8 101740 41
2011-08-19 07:56:27 51°18.306 3°2.131 6.5 241 15.8 101740 41
2011-08-19 07:56:32 51°18.315 3°2.151 7.6 26 15.9 101730 41
2011-08-19 07:56:37 51°18.324 3°2.171 6.3 242 15.9 101730 41
2011-08-19 07:56:42 51°18.334 3°2.19 6.4 24 15.9 101730 42
2011-08-19 07:56:47 51°18.343 3°2.21 8 242 15.9 101730 42
2011-08-19 07:56:52 51°18.352 3°2.229 6.1 26 15.9 101730 41
2011-08-19 07:56:57 51°18.362 3°2.249 6.5 241 15.9 101730 41
2011-08-19 07:57:02 51°18.371 3°2.269 7 26 15.9 101730 41
2011-08-19 07:57:07 51°18.38 3°2.289 5.8 241 15.9 101730 41
2011-08-19 07:57:12 51°18.389 3°2.308 6.7 26 15.9 101740 41
2011-08-19 07:57:17 51°18.397 3°2.329 5 240 15.9 101740 41
2011-08-19 07:57:22 51°18.406 3°2.349 6.4 244 15.9 101740 41
2011-08-19 07:57:27 51°18.414 3°2.37 5.4 240 15.9 101740 41
2011-08-19 07:57:32 51°18.421 3°2.392 4.9 26 15.9 101740 40
2011-08-19 07:57:37 51°18.428 3°2.414 4.9 241 15.9 101740 40
2011-08-19 07:57:41 51°18.433 3°2.432 4.2 25 15.9 101740 41
2011-08-19 07:57:47 51°18.441 3°2.459 4.1 237 15.9 101740 41
2011-08-19 07:57:52 51°18.445 3°2.481 4.2 29 15.9 101740 42
2011-08-19 07:57:57 51°18.451 3°2.504 4.2 239 15.9 101740 42
2011-08-19 07:58:02 51°18.457 3°2.527 4.1 21 15.9 101750 41
2011-08-19 07:58:07 51°18.462 3°2.55 4.4 236 15.9 101750 41
2011-08-19 07:58:12 51°18.468 3°2.573 4.6 25 15.9 101740 42
2011-08-19 07:58:17 51°18.474 3°2.595 4 239 15.9 101740 42
2011-08-19 07:58:22 51°18.48 3°2.618 4.1 22 15.9 101750 41
2011-08-19 07:58:27 51°18.487 3°2.64 4.1 34 15.9 101750 41
2011-08-19 07:58:32 51°18.493 3°2.663 3.6 23 15.9 101750 41
2011-08-19 07:58:37 51°18.5 3°2.685 4.5 32 15.9 101750 41
2011-08-19 07:58:42 51°18.506 3°2.707 4.8 22 15.9 101740 41
2011-08-19 07:58:47 51°18.512 3°2.729 4.7 38 15.9 101740 41
2011-08-19 07:58:52 51°18.518 3°2.752 4 25 15.8 101740 39
2011-08-19 07:58:57 51°18.525 3°2.774 4.7 235 15.8 101740 39
2011-08-19 07:59:02 51°18.531 3°2.797 5 23 15.8 101750 41
2011-08-19 07:59:07 51°18.537 3°2.818 4.3 236 15.8 101750 41
2011-08-19 07:59:12 51°18.544 3°2.84 4.5 27 15.8 101740 40
2011-08-19 07:59:17 51°18.552 3°2.862 5.6 35 15.8 101740 40
2011-08-19 07:59:22 51°18.559 3°2.883 5.9 24 15.9 101740 42
2011-08-19 07:59:27 51°18.567 3°2.903 5.4 235 15.9 101740 42
2011-08-19 07:59:32 51°18.575 3°2.925 4.2 21 15.9 101750 41
2011-08-19 07:59:37 51°18.583 3°2.945 4.8 32 15.9 101750 41
2011-08-19 07:59:41 51°18.589 3°2.961 4.5 22 15.9 101750 42
2011-08-19 07:59:47 51°18.6 3°2.986 4.2 234 15.9 101750 42
2011-08-19 07:59:52 51°18.608 3°3.007 5.4 21 15.9 101740 41
2011-08-19 07:59:57 51°18.615 3°3.028 4.6 38 15.9 101740 41
2011-08-19 08:00:02 51°18.622 3°3.05 3.4 28 15.8 101750 41
2011-08-19 08:00:07 51°18.629 3°3.072 4.8 33 15.8 101750 41
2011-08-19 08:00:12 51°18.636 3°3.093 4.2 29 15.8 101750 40
2011-08-19 08:00:17 51°18.644 3°3.114 4.5 233 15.8 101750 40
2011-08-19 08:00:22 51°18.651 3°3.136 4.2 27 15.8 101750 41
2011-08-19 08:00:27 51°18.658 3°3.156 4.7 34 15.8 101750 41
2011-08-19 08:00:32 51°18.666 3°3.177 3.9 21 15.8 101750 41
2011-08-19 08:00:37 51°18.674 3°3.198 5.8 31 15.8 101750 41
2011-08-19 08:00:42 51°18.682 3°3.219 6.6 27 15.8 101750 40
2011-08-19 08:00:47 51°18.69 3°3.24 4.8 235 15.8 101750 40
2011-08-19 08:00:52 51°18.698 3°3.26 5.5 22 15.8 101740 40
2011-08-19 08:00:57 51°18.706 3°3.281 4.5 240 15.8 101740 40
2011-08-19 08:01:02 51°18.714 3°3.302 4.4 24 15.8 101750 41
2011-08-19 08:01:07 51°18.722 3°3.323 5.9 235 15.8 101750 41
2011-08-19 08:01:12 51°18.73 3°3.343 5.2 21 15.8 101750 40
2011-08-19 08:01:17 51°18.738 3°3.364 4.5 238 15.8 101750 40
2011-08-19 08:01:22 51°18.746 3°3.384 4.9 23 15.9 101750 41
2011-08-19 08:01:27 51°18.754 3°3.405 4.6 35 15.9 101750 41
2011-08-19 08:01:32 51°18.762 3°3.426 5.2 20 15.9 101750 39
2011-08-19 08:01:37 51°18.769 3°3.447 5.8 239 15.9 101750 39
2011-08-19 08:01:42 51°18.776 3°3.469 5.6 284 15.9 101750 41
2011-08-19 08:01:47 51°18.782 3°3.492 4.6 237 15.9 101750 41
2011-08-19 08:01:52 51°18.789 3°3.513 4.7 27 15.9 101750 41
2011-08-19 08:01:57 51°18.795 3°3.536 4.5 237 15.9 101750 41
2011-08-19 08:02:02 51°18.801 3°3.558 5.4 26 15.9 101750 40
2011-08-19 08:02:07 51°18.807 3°3.58 4.8 239 15.9 101750 40
2011-08-19 08:02:12 51°18.813 3°3.602 4.9 20 15.9 101760 40
2011-08-19 08:02:17 51°18.82 3°3.625 4.9 238 15.9 101760 40
2011-08-19 08:02:22 51°18.827 3°3.646 5.4 23 15.9 101760 40
2011-08-19 08:02:27 51°18.834 3°3.668 4.5 235 15.9 101760 40
2011-08-19 08:02:32 51°18.841 3°3.689 4.7 22 15.9 101750 41
2011-08-19 08:02:37 51°18.848 3°3.711 4.4 239 15.9 101750 41
2011-08-19 08:02:42 51°18.856 3°3.732 3.8 23 15.9 101760 41
2011-08-19 08:02:47 51°18.863 3°3.753 5 33 15.9 101760 41
2011-08-19 08:02:52 51°18.871 3°3.774 5.7 21 15.9 101750 41
2011-08-19 08:02:57 51°18.879 3°3.795 5.1 238 15.9 101750 41
2011-08-19 08:03:02 51°18.887 3°3.815 6.6 23 16 101750 41
2011-08-19 08:03:07 51°18.896 3°3.835 5.9 239 16 101750 41
2011-08-19 08:03:12 51°18.903 3°3.855 4.6 281 16 101760 40
2011-08-19 08:03:17 51°18.912 3°3.876 4.8 239 16 101760 40
2011-08-19 08:03:22 51°18.92 3°3.896 5.3 20 16 101750 40
2011-08-19 08:03:27 51°18.929 3°3.916 5.2 243 16 101750 40
2011-08-19 08:03:32 51°18.938 3°3.936 4.6 26 16 101750 40
2011-08-19 08:03:37 51°18.946 3°3.956 4.6 241 16 101750 40
2011-08-19 08:03:42 51°18.955 3°3.975 4.5 21 16 101750 40
2011-08-19 08:03:47 51°18.964 3°3.994 5.3 240 16 101750 40
2011-08-19 08:03:52 51°18.975 3°4.012 5.5 21 16 101760 40
2011-08-19 08:03:57 51°18.985 3°4.029 6.3 239 16 101760 40
2011-08-19 08:04:02 51°18.996 3°4.046 6.9 283 16.1 101760 40
2011-08-19 08:04:07 51°19.007 3°4.063 6.6 241 16.1 101760 40
2011-08-19 08:04:12 51°19.018 3°4.079 6.6 27 16.1 101760 39
2011-08-19 08:04:17 51°19.029 3°4.095 5.5 238 16.1 101760 39
2011-08-19 08:04:21 51°19.037 3°4.109 5.2 28 16.1 101750 41
2011-08-19 08:04:27 51°19.051 3°4.129 5.6 239 16.1 101750 41
2011-08-19 08:04:32 51°19.061 3°4.145 6.6 21 16.1 101760 40
2011-08-19 08:04:37 51°19.072 3°4.162 5.3 240 16.1 101760 40
2011-08-19 08:04:42 51°19.083 3°4.179 5.9 27 16.1 101760 40
2011-08-19 08:04:47 51°19.093 3°4.197 5.5 239 16.1 101760 40
2011-08-19 08:04:52 51°19.104 3°4.214 4.8 21 16.1 101760 40
2011-08-19 08:04:57 51°19.113 3°4.233 5.4 243 16.1 101760 40
2011-08-19 08:05:02 51°19.123 3°4.251 4.6 23 16.1 101760 40
2011-08-19 08:05:07 51°19.132 3°4.271 4.8 239 16.1 101760 40
2011-08-19 08:05:13 51°19.143 3°4.293 4.7 241 16.1 101760 41
2011-08-19 08:05:17 51°19.15 3°4.309 4.7 240 16.1 101760 41
2011-08-19 08:05:22 51°19.16 3°4.328 5.4 24 16.1 101760 41
2011-08-19 08:05:27 51°19.169 3°4.347 5.1 237 16.1 101760 41
2011-08-19 08:05:32 51°19.179 3°4.365 5.5 24 16.1 101760 40
2011-08-19 08:05:37 51°19.19 3°4.383 6.7 241 16.1 101760 40
2011-08-19 08:05:42 51°19.2 3°4.4 6.2 27 16.1 101760 41
2011-08-19 08:05:47 51°19.211 3°4.416 5.9 240 16.1 101760 41
2011-08-19 08:05:52 51°19.222 3°4.433 6.5 25 16.1 101760 40
2011-08-19 08:05:57 51°19.233 3°4.449 7.8 32 16.1 101760 40
2011-08-19 08:06:02 51°19.245 3°4.465 8 20 16.2 101750 41
2011-08-19 08:06:07 51°19.256 3°4.482 4.9 237 16.2 101750 41
2011-08-19 08:06:12 51°19.268 3°4.497 6.7 23 16.2 101770 41
2011-08-19 08:06:17 51°19.279 3°4.513 6.4 235 16.2 101770 41
2011-08-19 08:06:22 51°19.291 3°4.528 6.6 280 16.1 101750 41
2011-08-19 08:06:27 51°19.302 3°4.544 6.6 32 16.1 101750 41
2011-08-19 08:06:32 51°19.314 3°4.56 6.9 20 16.2 101760 41
2011-08-19 08:06:37 51°19.326 3°4.575 7.4 235 16.2 101760 41
2011-08-19 08:06:41 51°19.335 3°4.588 6 23 16.1 101760 41
2011-08-19 08:06:47 51°19.348 3°4.607 6 31 16.1 101760 41
2011-08-19 08:06:52 51°19.36 3°4.623 7.4 28 16.1 101770 40
2011-08-19 08:06:57 51°19.371 3°4.639 6.2 35 16.1 101770 40
2011-08-19 08:07:02 51°19.382 3°4.655 6.2 25 16.1 101760 41
2011-08-19 08:07:07 51°19.393 3°4.671 5.9 31 16.1 101760 41
2011-08-19 08:07:12 51°19.404 3°4.688 8.4 284 16.2 101760 41
2011-08-19 08:07:17 51°19.415 3°4.704 5.7 237 16.2 101760 41
2011-08-19 08:07:22 51°19.426 3°4.72 7.2 24 16.2 101760 41
2011-08-19 08:07:27 51°19.437 3°4.737 6.8 238 16.2 101760 41
2011-08-19 08:07:32 51°19.448 3°4.752 7.1 25 16.2 101760 41
2011-08-19 08:07:37 51°19.459 3°4.769 8.2 241 16.2 101760 41
2011-08-19 08:07:42 51°19.47 3°4.785 7.5 22 16.2 101760 41
2011-08-19 08:07:47 51°19.482 3°4.801 6.3 240 16.2 101760 41
2011-08-19 08:07:52 51°19.492 3°4.817 6 23 16.1 101760 41
2011-08-19 08:07:57 51°19.503 3°4.834 6.2 240 16.1 101760 41
2011-08-19 08:08:02 51°19.514 3°4.85 7.1 26 16.1 101760 40
2011-08-19 08:08:07 51°19.525 3°4.866 7.2 236 16.1 101760 40
2011-08-19 08:08:12 51°19.537 3°4.882 6 25 16.1 101760 41
2011-08-19 08:08:17 51°19.548 3°4.899 6.2 239 16.1 101760 41
2011-08-19 08:08:22 51°19.559 3°4.915 7.5 24 16.1 101760 41
2011-08-19 08:08:27 51°19.569 3°4.931 6.7 238 16.1 101760 41
2011-08-19 08:08:32 51°19.58 3°4.948 7.4 28 16.1 101760 41
2011-08-19 08:08:37 51°19.59 3°4.966 6.4 242 16.1 101760 41
2011-08-19 08:08:42 51°19.599 3°4.984 6.4 23 16.1 101760 41
2011-08-19 08:08:47 51°19.608 3°5.004 7.6 245 16.1 101760 41
2011-08-19 08:08:52 51°19.618 3°5.021 7.3 20 16.1 101760 41
2011-08-19 08:08:57 51°19.627 3°5.04 6.5 241 16.1 101760 41
2011-08-19 08:09:01 51°19.635 3°5.054 6 26 16.1 101760 41
2011-08-19 08:09:07 51°19.646 3°5.077 5.7 247 16.1 101760 41
2011-08-19 08:09:12 51°19.656 3°5.096 6.1 22 16.1 101760 40
2011-08-19 08:09:17 51°19.665 3°5.114 5.3 241 16.1 101760 40
2011-08-19 08:09:22 51°19.674 3°5.133 5.3 22 16.1 101770 41
2011-08-19 08:09:27 51°19.684 3°5.151 5.6 248 16.1 101770 41
2011-08-19 08:09:33 51°19.695 3°5.173 4.7 247 16.1 101760 39
2011-08-19 08:09:37 51°19.703 3°5.188 5.7 244 16.1 101760 39
2011-08-19 08:09:42 51°19.712 3°5.207 7.3 20 16.1 101760 41
2011-08-19 08:09:47 51°19.722 3°5.225 7.1 243 16.1 101760 41
2011-08-19 08:09:52 51°19.732 3°5.243 5.8 280 16.1 101770 41
2011-08-19 08:09:57 51°19.742 3°5.261 5.7 244 16.1 101770 41
2011-08-19 08:10:02 51°19.753 3°5.278 4.6 278 16.1 101760 42
2011-08-19 08:10:07 51°19.763 3°5.296 6.4 239 16.1 101760 42
2011-08-19 08:10:12 51°19.773 3°5.313 4.4 26 16.1 101760 41
2011-08-19 08:10:17 51°19.783 3°5.331 5.2 241 16.1 101760 41
2011-08-19 08:10:22 51°19.793 3°5.349 3.3 22 16.1 101760 41
2011-08-19 08:10:27 51°19.802 3°5.368 4.4 245 16.1 101760 41
2011-08-19 08:10:32 51°19.811 3°5.387 5.6 247 16.1 101770 40
2011-08-19 08:10:37 51°19.819 3°5.408 4.2 241 16.1 101770 40
2011-08-19 08:10:42 51°19.828 3°5.427 4.9 21 16.1 101770 41
2011-08-19 08:10:47 51°19.834 3°5.449 5.3 241 16.1 101770 41
2011-08-19 08:10:52 51°19.842 3°5.47 4.7 21 16.1 101770 41
2011-08-19 08:10:57 51°19.847 3°5.492 5.4 245 16.1 101770 41
2011-08-19 08:11:02 51°19.854 3°5.513 5.1 284 16.1 101770 41
2011-08-19 08:11:07 51°19.861 3°5.535 4.3 246 16.1 101770 41
2011-08-19 08:11:12 51°19.868 3°5.556 5 249 16.1 101770 40
2011-08-19 08:11:17 51°19.875 3°5.576 4.8 239 16.1 101770 40
2011-08-19 08:11:21 51°19.881 3°5.593 5.4 29 16.1 101770 40
2011-08-19 08:11:27 51°19.89 3°5.618 5.8 31 16.1 101770 40
2011-08-19 08:11:32 51°19.898 3°5.638 6.2 28 16.1 101770 40
2011-08-19 08:11:37 51°19.906 3°5.658 7.5 34 16.1 101770 40
2011-08-19 08:11:41 51°19.912 3°5.674 6.2 26 16.1 101770 40
2011-08-19 08:11:47 51°19.922 3°5.698 6.8 236 16.1 101770 40
2011-08-19 08:11:52 51°19.932 3°5.717 6.7 278 16.1 101770 40
2011-08-19 08:11:57 51°19.941 3°5.736 5.9 238 16.1 101770 40
2011-08-19 08:12:02 51°19.95 3°5.755 6.7 27 16.1 101760 41
2011-08-19 08:12:07 51°19.959 3°5.774 6.4 240 16.1 101760 41
2011-08-19 08:12:12 51°19.968 3°5.793 5.4 22 16.1 101770 39
2011-08-19 08:12:17 51°19.977 3°5.812 6.3 239 16.1 101770 39
2011-08-19 08:12:22 51°19.986 3°5.832 5.5 28 16.1 101770 40
2011-08-19 08:12:27 51°19.994 3°5.852 5.9 238 16.1 101770 40
2011-08-19 08:12:32 51°20.003 3°5.871 6.5 25 16.1 101770 40
2011-08-19 08:12:37 51°20.011 3°5.891 6.8 244 16.1 101770 40
2011-08-19 08:12:42 51°20.019 3°5.912 6 26 16.1 101780 41
2011-08-19 08:12:47 51°20.027 3°5.932 7.2 244 16.1 101780 41
2011-08-19 08:12:52 51°20.034 3°5.952 6.4 21 16.1 101770 41
2011-08-19 08:12:57 51°20.042 3°5.973 5.6 242 16.1 101770 41
2011-08-19 08:13:02 51°20.05 3°5.993 7 285 16.1 101770 41
2011-08-19 08:13:07 51°20.058 3°6.013 7.5 245 16.1 101770 41
2011-08-19 08:13:12 51°20.066 3°6.034 7.7 20 16.1 101770 40
2011-08-19 08:13:17 51°20.074 3°6.054 5.4 245 16.1 101770 40
2011-08-19 08:13:21 51°20.08 3°6.071 4.9 245 16.1 101770 40
2011-08-19 08:13:27 51°20.09 3°6.094 5.1 244 16.1 101770 40
2011-08-19 08:13:32 51°20.099 3°6.114 5 245 16.1 101770 40
2011-08-19 08:13:37 51°20.108 3°6.133 5.7 247 16.1 101770 40
2011-08-19 08:13:42 51°20.117 3°6.153 6.1 249 16.1 101760 41
2011-08-19 08:13:47 51°20.126 3°6.171 5.5 243 16.1 101760 41
2011-08-19 08:13:52 51°20.135 3°6.19 4.6 246 16.1 101770 40
2011-08-19 08:13:57 51°20.145 3°6.209 5.2 244 16.1 101770 40
2011-08-19 08:14:02 51°20.154 3°6.228 5.1 23 16.1 101770 41
2011-08-19 08:14:07 51°20.164 3°6.246 5.3 247 16.1 101770 41
2011-08-19 08:14:12 51°20.173 3°6.265 6.8 279 16.1 101770 40
2011-08-19 08:14:17 51°20.183 3°6.283 5.9 241 16.1 101770 40
2011-08-19 08:14:22 51°20.192 3°6.303 4.5 25 16.1 101770 41
2011-08-19 08:14:27 51°20.202 3°6.32 5.6 239 16.1 101770 41
2011-08-19 08:14:32 51°20.211 3°6.339 6.6 24 16.1 101770 41
2011-08-19 08:14:37 51°20.221 3°6.358 6.5 244 16.1 101770 41
2011-08-19 08:14:42 51°20.23 3°6.377 5.2 278 16.2 101770 41
2011-08-19 08:14:47 51°20.239 3°6.396 6 242 16.2 101770 41
2011-08-19 08:14:52 51°20.249 3°6.414 7.2 26 16.2 101780 39
2011-08-19 08:14:57 51°20.258 3°6.433 5.4 248 16.2 101780 39
2011-08-19 08:15:02 51°20.267 3°6.452 6.7 28 16.1 101770 40
2011-08-19 08:15:07 51°20.277 3°6.471 6.6 247 16.1 101770 40
2011-08-19 08:15:12 51°20.286 3°6.489 5.5 22 16.1 101770 41
2011-08-19 08:15:17 51°20.295 3°6.508 4.7 244 16.1 101770 41
2011-08-19 08:15:22 51°20.305 3°6.527 7.4 280 16.1 101770 40
2011-08-19 08:15:27 51°20.314 3°6.546 5.2 241 16.1 101770 40
2011-08-19 08:15:32 51°20.323 3°6.564 5 27 16.1 101780 40
2011-08-19 08:15:37 51°20.331 3°6.584 7.2 242 16.1 101780 40
2011-08-19 08:15:42 51°20.34 3°6.603 6.4 19 16.2 101780 40
2011-08-19 08:15:47 51°20.349 3°6.623 6 248 16.2 101780 40
2011-08-19 08:15:52 51°20.358 3°6.642 5.5 28 16.2 101780 41
2011-08-19 08:15:57 51°20.366 3°6.662 5.5 246 16.2 101780 41
2011-08-19 08:16:02 51°20.374 3°6.681 6.2 22 16.2 101770 40
2011-08-19 08:16:07 51°20.383 3°6.701 6.8 247 16.2 101770 40
2011-08-19 08:16:12 51°20.391 3°6.721 5.4 281 16.2 101780 41
2011-08-19 08:16:17 51°20.4 3°6.741 7.9 245 16.2 101780 41
2011-08-19 08:16:22 51°20.408 3°6.76 5.3 246 16.2 101780 40
2011-08-19 08:16:27 51°20.417 3°6.779 6.1 240 16.2 101780 40
2011-08-19 08:16:32 51°20.425 3°6.799 4.7 24 16.3 101780 41
2011-08-19 08:16:37 51°20.434 3°6.818 7.8 243 16.3 101780 41
2011-08-19 08:16:42 51°20.443 3°6.837 5.5 246 16.3 101780 41
2011-08-19 08:16:47 51°20.452 3°6.856 6 244 16.3 101780 41
2011-08-19 08:16:52 51°20.461 3°6.874 6.4 20 16.3 101780 40
2011-08-19 08:16:57 51°20.47 3°6.893 6.2 235 16.3 101780 40
2011-08-19 08:17:02 51°20.479 3°6.911 5.2 29 16.3 101780 41
2011-08-19 08:17:07 51°20.488 3°6.93 6.7 237 16.3 101780 41
2011-08-19 08:17:12 51°20.497 3°6.949 6.2 27 16.3 101770 41
2011-08-19 08:17:17 51°20.506 3°6.967 6.3 31 16.3 101770 41
2011-08-19 08:17:22 51°20.515 3°6.986 6.8 26 16.3 101780 41
2011-08-19 08:17:27 51°20.524 3°7.005 5.6 242 16.3 101780 41
2011-08-19 08:17:32 51°20.533 3°7.024 6.6 22 16.3 101780 40
2011-08-19 08:17:37 51°20.541 3°7.043 6.4 241 16.3 101780 40
2011-08-19 08:17:42 51°20.551 3°7.062 5.8 22 16.3 101780 40
2011-08-19 08:17:47 51°20.559 3°7.081 6.3 240 16.3 101780 40
2011-08-19 08:17:52 51°20.568 3°7.1 5.9 21 16.3 101780 40
2011-08-19 08:17:57 51°20.577 3°7.119 6.5 32 16.3 101780 40
2011-08-19 08:18:02 51°20.585 3°7.139 6.8 282 16.3 101770 40
2011-08-19 08:18:07 51°20.594 3°7.158 7 238 16.3 101770 40
2011-08-19 08:18:12 51°20.602 3°7.177 6.6 283 16.3 101780 41
2011-08-19 08:18:17 51°20.61 3°7.197 6.9 240 16.3 101780 41
2011-08-19 08:18:22 51°20.619 3°7.215 6.7 24 16.3 101780 42
2011-08-19 08:18:27 51°20.628 3°7.235 6.9 236 16.3 101780 42
2011-08-19 08:18:32 51°20.637 3°7.254 6.8 26 16.3 101770 41
2011-08-19 08:18:37 51°20.646 3°7.272 5.8 238 16.3 101770 41
2011-08-19 08:18:42 51°20.654 3°7.292 5.5 22 16.3 101770 40
2011-08-19 08:18:47 51°20.663 3°7.311 6.2 31 16.3 101770 40
2011-08-19 08:18:52 51°20.671 3°7.331 6.4 279 16.3 101770 40
2011-08-19 08:18:57 51°20.68 3°7.35 6.9 236 16.3 101770 40
2011-08-19 08:19:02 51°20.688 3°7.37 7.3 23 16.3 101770 41
2011-08-19 08:19:07 51°20.696 3°7.39 5.9 245 16.3 101770 41
2011-08-19 08:19:12 51°20.704 3°7.41 5.3 23 16.3 101780 40
2011-08-19 08:19:17 51°20.713 3°7.428 5.9 237 16.3 101780 40
2011-08-19 08:19:22 51°20.722 3°7.448 6.4 25 16.2 101780 41
2011-08-19 08:19:27 51°20.732 3°7.466 6.6 236 16.2 101780 41
2011-08-19 08:19:32 51°20.741 3°7.484 6.5 27 16.2 101780 40
2011-08-19 08:19:37 51°20.752 3°7.502 6.5 238 16.2 101780 40
2011-08-19 08:19:42 51°20.762 3°7.518 7.2 23 16.2 101780 40
2011-08-19 08:19:47 51°20.773 3°7.534 6.5 33 16.2 101780 40
2011-08-19 08:19:52 51°20.784 3°7.55 5.9 23 16.2 101780 41
2011-08-19 08:19:57 51°20.796 3°7.565 6.8 238 16.2 101780 41
2011-08-19 08:20:02 51°20.808 3°7.581 7.8 282 16.2 101780 40
2011-08-19 08:20:07 51°20.82 3°7.594 7.6 239 16.2 101780 40
2011-08-19 08:20:12 51°20.833 3°7.607 8 284 16.2 101760 39
2011-08-19 08:20:17 51°20.846 3°7.621 7 237 16.2 101760 39
2011-08-19 08:20:22 51°20.859 3°7.634 9 22 16.2 101780 40
2011-08-19 08:20:27 51°20.872 3°7.646 6.6 235 16.2 101780 40
2011-08-19 08:20:32 51°20.885 3°7.658 7 25 16.2 101770 41
2011-08-19 08:20:37 51°20.898 3°7.669 7.8 236 16.2 101770 41
2011-08-19 08:20:42 51°20.912 3°7.678 8.6 27 16.2 101780 41
2011-08-19 08:20:47 51°20.926 3°7.689 8.3 32 16.2 101780 41
2011-08-19 08:20:52 51°20.94 3°7.698 8.2 284 16.2 101770 40
2011-08-19 08:20:57 51°20.954 3°7.707 8.3 34 16.2 101770 40
2011-08-19 08:21:02 51°20.968 3°7.716 7.6 21 16.2 101770 41
2011-08-19 08:21:07 51°20.982 3°7.726 8.3 34 16.2 101770 41
2011-08-19 08:21:12 51°20.996 3°7.733 9 281 16.2 101770 40
2011-08-19 08:21:17 51°21.011 3°7.741 7.2 235 16.2 101770 40
2011-08-19 08:21:22 51°21.026 3°7.747 7.7 24 16.2 101770 40
2011-08-19 08:21:27 51°21.04 3°7.753 7.3 235 16.2 101770 40
2011-08-19 08:21:32 51°21.055 3°7.758 7.3 23 16.2 101770 40
2011-08-19 08:21:37 51°21.07 3°7.764 8.8 236 16.2 101770 40
2011-08-19 08:21:42 51°21.085 3°7.77 9.3 26 16.1 101770 40
2011-08-19 08:21:47 51°21.1 3°7.776 8.3 238 16.1 101770 40
2011-08-19 08:21:52 51°21.115 3°7.781 9.5 25 16.1 101770 39
2011-08-19 08:21:57 51°21.13 3°7.787 9.1 232 16.1 101770 39
2011-08-19 08:22:02 51°21.145 3°7.793 10.1 284 16.1 101760 40
2011-08-19 08:22:07 51°21.16 3°7.798 9.6 36 16.1 101760 40
2011-08-19 08:22:12 51°21.175 3°7.803 8.7 23 16.1 101770 40
2011-08-19 08:22:17 51°21.19 3°7.809 9 233 16.1 101770 40
2011-08-19 08:22:22 51°21.205 3°7.814 9.5 21 16.1 101770 41
2011-08-19 08:22:27 51°21.22 3°7.819 9.6 234 16.1 101770 41
2011-08-19 08:22:32 51°21.235 3°7.825 8.4 28 16.1 101770 40
2011-08-19 08:22:37 51°21.25 3°7.83 11.5 32 16.1 101770 40
2011-08-19 08:22:42 51°21.266 3°7.836 9.8 25 16.1 101760 40
2011-08-19 08:22:47 51°21.281 3°7.841 7.7 39 16.1 101760 40
2011-08-19 08:22:53 51°21.299 3°7.847 7.6 27 16 101770 38
2011-08-19 08:22:57 51°21.31 3°7.851 7 34 16 101770 38
2011-08-19 08:23:02 51°21.324 3°7.857 7.3 27 16 101770 40
2011-08-19 08:23:07 51°21.338 3°7.863 8.9 36 16 101770 40
2011-08-19 08:23:12 51°21.35 3°7.869 7 20 16 101780 40
2011-08-19 08:23:17 51°21.363 3°7.874 8 240 16 101780 40
2011-08-19 08:23:22 51°21.374 3°7.879 6.6 27 16 101770 39
2011-08-19 08:23:27 51°21.385 3°7.883 7.4 34 16 101770 39
2011-08-19 08:23:32 51°21.395 3°7.886 7.6 28 16 101770 39
2011-08-19 08:23:37 51°21.405 3°7.889 7.6 237 16 101770 39
2011-08-19 08:23:42 51°21.414 3°7.89 7.2 25 16 101770 40
2011-08-19 08:23:47 51°21.423 3°7.889 7.8 236 16 101770 40
2011-08-19 08:23:52 51°21.432 3°7.885 7.5 29 16 101760 41
2011-08-19 08:23:57 51°21.439 3°7.88 6.8 236 16 101760 41
2011-08-19 08:24:02 51°21.446 3°7.874 7.9 284 16 101770 40
2011-08-19 08:24:07 51°21.452 3°7.866 7.9 34 16 101770 40
2011-08-19 08:24:12 51°21.458 3°7.858 6.4 27 16 101770 40
2011-08-19 08:24:17 51°21.463 3°7.849 8.8 317 16 101770 40
2011-08-19 08:24:22 51°21.467 3°7.839 7.7 320 16 101770 40
2011-08-19 08:24:27 51°21.471 3°7.829 9.3 323 16 101770 40
2011-08-19 08:24:32 51°21.474 3°7.817 8.7 325 16 101770 39
2011-08-19 08:24:37 51°21.476 3°7.805 9.5 328 16 101770 39
2011-08-19 08:24:42 51°21.477 3°7.793 9.2 329 16 101780 40
2011-08-19 08:24:47 51°21.478 3°7.782 7 331 16 101780 40
2011-08-19 08:24:52 51°21.479 3°7.77 6.8 332 16 101780 39
2011-08-19 08:24:57 51°21.479 3°7.76 6.5 333 16 101780 39
2011-08-19 08:25:02 51°21.479 3°7.749 7.4 335 16 101770 39
2011-08-19 08:25:07 51°21.479 3°7.738 6.5 340 16 101770 39
2011-08-19 08:25:12 51°21.478 3°7.728 7.7 280 15.9 101770 40
2011-08-19 08:25:17 51°21.477 3°7.719 8.3 342 15.9 101770 40
2011-08-19 08:25:22 51°21.476 3°7.708 6.6 344 15.9 101780 40
2011-08-19 08:25:27 51°21.475 3°7.699 6.8 348 15.9 101780 40
2011-08-19 08:25:32 51°21.474 3°7.69 6.3 350 15.9 101770 38
2011-08-19 08:25:37 51°21.472 3°7.681 7.7 351 15.9 101770 38
2011-08-19 08:25:42 51°21.471 3°7.672 6.1 344 15.9 101780 40
2011-08-19 08:25:47 51°21.469 3°7.663 7.8 351 15.9 101780 40
2011-08-19 08:25:52 51°21.467 3°7.655 5.8 356 15.9 101770 40
2011-08-19 08:25:57 51°21.465 3°7.647 8 354 15.9 101770 40
2011-08-19 08:26:02 51°21.464 3°7.639 6.1 353 15.9 101770 40
2011-08-19 08:26:07 51°21.462 3°7.63 6.1 353 15.9 101770 40
2011-08-19 08:26:12 51°21.46 3°7.622 6.5 357 15.9 101770 41
2011-08-19 08:26:17 51°21.458 3°7.614 6.1 353 15.9 101770 41
2011-08-19 08:26:22 51°21.456 3°7.607 6.5 355 16 101770 42
2011-08-19 08:26:27 51°21.454 3°7.599 6.4 355 16 101770 42
2011-08-19 08:26:32 51°21.453 3°7.591 6 355 15.9 101770 40
2011-08-19 08:26:37 51°21.451 3°7.583 6.1 353 15.9 101770 40
2011-08-19 08:26:42 51°21.449 3°7.576 6.5 355 15.8 101770 39
2011-08-19 08:26:47 51°21.447 3°7.568 6.4 353 15.8 101770 39
2011-08-19 08:26:52 51°21.445 3°7.56 6.4 352 15.8 101770 40
2011-08-19 08:26:57 51°21.443 3°7.552 8.9 353 15.8 101770 40
2011-08-19 08:27:02 51°21.442 3°7.544 8.3 350 15.7 101780 39
2011-08-19 08:27:07 51°21.44 3°7.536 7.5 349 15.7 101780 39
2011-08-19 08:27:12 51°21.438 3°7.527 7.7 348 15.7 101770 40
2011-08-19 08:27:17 51°21.437 3°7.519 7.2 344 15.7 101770 40
2011-08-19 08:27:22 51°21.435 3°7.51 6.5 347 15.7 101770 40
2011-08-19 08:27:27 51°21.434 3°7.501 6.7 345 15.7 101770 40
2011-08-19 08:27:32 51°21.432 3°7.493 7.8 345 15.7 101760 41
2011-08-19 08:27:37 51°21.431 3°7.484 6.9 343 15.7 101760 41
2011-08-19 08:27:42 51°21.43 3°7.474 8.1 345 15.7 101770 41
2011-08-19 08:27:47 51°21.429 3°7.465 6.7 337 15.7 101770 41
2011-08-19 08:27:52 51°21.428 3°7.455 6.9 340 15.7 101760 40
2011-08-19 08:27:57 51°21.427 3°7.445 8 330 15.7 101760 40
2011-08-19 08:28:02 51°21.427 3°7.435 6.2 331 15.7 101770 41
2011-08-19 08:28:07 51°21.426 3°7.425 7.2 329 15.7 101770 41
2011-08-19 08:28:12 51°21.426 3°7.415 7 279 15.7 101770 40
2011-08-19 08:28:17 51°21.426 3°7.405 6.7 325 15.7 101770 40
2011-08-19 08:28:22 51°21.427 3°7.395 6.5 324 15.7 101770 42
2011-08-19 08:28:27 51°21.428 3°7.385 7.2 324 15.7 101770 42
2011-08-19 08:28:32 51°21.428 3°7.375 6.1 323 15.8 101770 41
2011-08-19 08:28:37 51°21.429 3°7.365 6.3 320 15.8 101770 41
2011-08-19 08:28:42 51°21.431 3°7.356 6.6 283 15.7 101780 39
2011-08-19 08:28:47 51°21.432 3°7.346 6.5 38 15.7 101780 39
2011-08-19 08:28:52 51°21.434 3°7.337 7.1 27 15.7 101780 40
2011-08-19 08:28:57 51°21.436 3°7.329 8.1 35 15.7 101780 40
2011-08-19 08:29:02 51°21.438 3°7.321 6 20 15.7 101780 39
2011-08-19 08:29:07 51°21.441 3°7.313 6.5 35 15.7 101780 39
2011-08-19 08:29:12 51°21.444 3°7.305 6.6 22 15.7 101780 39
2011-08-19 08:29:17 51°21.446 3°7.299 6.9 239 15.7 101780 39
2011-08-19 08:29:22 51°21.449 3°7.292 6.5 26 15.7 101770 40
2011-08-19 08:29:27 51°21.453 3°7.286 6.4 245 15.7 101770 40
2011-08-19 08:29:32 51°21.456 3°7.281 6.5 21 15.7 101780 40
2011-08-19 08:29:37 51°21.46 3°7.276 6.3 248 15.7 101780 40
2011-08-19 08:29:42 51°21.464 3°7.272 6.9 249 15.8 101780 41
2011-08-19 08:29:47 51°21.467 3°7.268 6.6 252 15.8 101780 41
2011-08-19 08:29:52 51°21.471 3°7.265 7.4 253 15.8 101770 40
2011-08-19 08:29:57 51°21.475 3°7.263 7.1 256 15.8 101770 40
2011-08-19 08:30:02 51°21.479 3°7.261 7.2 254 15.8 101780 41
2011-08-19 08:30:07 51°21.483 3°7.259 7.6 259 15.8 101780 41
2011-08-19 08:30:12 51°21.486 3°7.258 5.7 278 15.8 101770 41
2011-08-19 08:30:17 51°21.49 3°7.258 6.6 260 15.8 101770 41
2011-08-19 08:30:22 51°21.493 3°7.257 6.2 262 15.9 101790 41
2011-08-19 08:30:27 51°21.497 3°7.257 7.1 259 15.9 101790 41
2011-08-19 08:30:32 51°21.501 3°7.257 6.5 261 15.9 101780 40
2011-08-19 08:30:37 51°21.504 3°7.258 8.4 258 15.9 101780 40
2011-08-19 08:30:42 51°21.508 3°7.258 8.7 257 15.9 101780 40
2011-08-19 08:30:47 51°21.512 3°7.258 7 257 15.9 101780 40
2011-08-19 08:30:52 51°21.516 3°7.258 6 255 15.9 101780 39
2011-08-19 08:30:57 51°21.52 3°7.259 6.8 256 15.9 101780 39
2011-08-19 08:31:02 51°21.525 3°7.26 8 253 15.9 101790 40
2011-08-19 08:31:07 51°21.529 3°7.26 6.1 251 15.9 101790 40
2011-08-19 08:31:12 51°21.533 3°7.261 6.7 256 15.9 101780 40
2011-08-19 08:31:17 51°21.537 3°7.261 6.2 252 15.9 101780 40
2011-08-19 08:31:21 51°21.54 3°7.262 6.8 252 15.9 101780 40
2011-08-19 08:31:27 51°21.546 3°7.263 6.8 250 15.9 101780 40
2011-08-19 08:31:32 51°21.55 3°7.264 7.1 252 15.9 101790 39
2011-08-19 08:31:37 51°21.554 3°7.264 6.7 253 15.9 101790 39
2011-08-19 08:31:42 51°21.558 3°7.264 7.2 254 15.9 101790 40
2011-08-19 08:31:47 51°21.562 3°7.265 7.4 256 15.9 101790 40